Weather History for Bonaire, Bonaire

Change the Weather History Date:

Tuesday, July 31, 2012

  Actual Average Record
Temperature  
Mean Temperature 84 °F -  
Max Temperature 89 °F 88 °F 102 °F (1999)
Min Temperature 80 °F 81 °F 78 °F (2010)
Cooling Degree Days 20    
Growing Degree Days 34 (Base 50)    
Moisture  
Dew Point 77 °F    
Average Humidity 77    
Maximum Humidity 89    
Minimum Humidity 60    
Precipitation  
Precipitation 0.00 in - - ()
Sea Level Pressure  
Sea Level Pressure 29.92 in    
Wind  
Wind Speed 13 mph ()    
Max Wind Speed 18 mph    
Max Gust Speed -    
Visibility 8.0 miles    
Events      
Averages and records for this station are not official NWS values.
T = Trace of Precipitation, MM = Missing Value Source: Averaged Metar Reports

Daily Weather History Graph

Daily Weather History Graph

Search for Another Location

Airport:

Trip Planner

Search our weather history database for the weather conditions in past years. The results will help you decide how hot, cold, wet, or windy it might be!

Date:

Astronomy

Jul. 31, 2012 Rise Set
Actual Time 6:19 AM AST 6:59 PM AST
Civil Twilight 5:57 AM AST 7:21 PM AST
Nautical Twilight 5:31 AM AST 7:47 PM AST
Astronomical Twilight 5:04 AM AST 8:14 PM AST
Moon 5:45 PM AST (7/31) 4:41 AM AST (7/31)
Length of Visible Light 13h 24m
Length of Day
12h 39m
Waxing Gibbous, 97% of the Moon is Illuminated
Jul 31
Waxing Gibbous
Aug 1
Full
Aug 9
Last Quarter
Aug 17
New
Aug 24
First Quarter

Hourly Weather History & Observations

Time (AST) Temp. Heat Index Dew Point Humidity Pressure Visibility Wind Dir Wind Speed Gust Speed Precip Events Conditions
12:00 AM 82.4 °F 90.9 °F 77.0 °F 84% 29.95 in - North - - N/A   Unknown
1:00 AM 80.6 °F 87.1 °F 77.0 °F 89% 29.89 in - North - - N/A   Unknown
2:00 AM 81 °F - 76 °F 82%  in - SE 13.8 mph - -   Clear
2:00 AM 82.4 °F 90.9 °F 77.0 °F 84% 29.89 in - North - - N/A   Unknown
3:00 AM 80.6 °F 87.1 °F 77.0 °F 89% 29.89 in - ESE 13.8 mph - N/A   Unknown
4:00 AM 80.6 °F 87.1 °F 77.0 °F 89% 29.89 in - North - - N/A   Unknown
5:00 AM 81 °F - 76 °F 80%  in - SE 13.8 mph - -   Clear
5:00 AM 80.6 °F 86.2 °F 75.2 °F 84% 29.89 in - ESE 13.8 mph - N/A   Unknown
6:00 AM 80.6 °F 86.2 °F 75.2 °F 84% 29.89 in - North - - N/A   Unknown
7:00 AM 82.4 °F 90.9 °F 77.0 °F 84% 29.92 in - ESE 13.8 mph - N/A   Unknown
8:00 AM 85 °F - 78 °F 73% 29.94 in 19 mi SE 12.7 mph - -   Partly Cloudy
8:00 AM 86.0 °F 99.3 °F 78.8 °F 79% 29.92 in 6.2 mi SE 12.7 mph - N/A   Scattered Clouds
9:00 AM 86.0 °F 96.9 °F 77.0 °F 74% 29.95 in 6.2 mi East 12.7 mph - N/A   Partly Cloudy
10:00 AM 87.8 °F 99.7 °F 77.0 °F 70% 29.95 in 6.2 mi East 12.7 mph - N/A   Partly Cloudy
11:00 AM 88 °F - 76 °F 60% 29.97 in 19 mi SE 12.7 mph - -   Partly Cloudy
11:00 AM 89.6 °F 102.2 °F 77.0 °F 66% 29.95 in 6.2 mi SE 12.7 mph - N/A   Scattered Clouds
12:00 PM 87.8 °F 99.7 °F 77.0 °F 70% 29.95 in 6.2 mi SE 17.3 mph - N/A   Scattered Clouds
1:00 PM 87.8 °F 99.7 °F 77.0 °F 70% 29.95 in 6.2 mi SE 17.3 mph - N/A   Scattered Clouds
2:00 PM 88 °F - 77 °F 63% 29.94 in 22 mi ESE 16.1 mph - -   Partly Cloudy
2:00 PM 87.8 °F 99.7 °F 77.0 °F 70% 29.92 in - North - - N/A   Unknown
3:00 PM 87.8 °F 99.7 °F 77.0 °F 70% 29.89 in 6.2 mi East 18.4 mph - N/A   Scattered Clouds
4:00 PM 89.6 °F 102.2 °F 77.0 °F 66% 29.86 in 6.2 mi East 15.0 mph - N/A   Scattered Clouds
5:00 PM 89 °F - 77 °F 60% 29.88 in 22 mi East 16.1 mph - -   Scattered Clouds
5:00 PM 87.8 °F 99.7 °F 77.0 °F 70% 29.86 in 6.2 mi East 16.1 mph - N/A   Partly Cloudy
6:00 PM 87.8 °F 99.7 °F 77.0 °F 70% 29.86 in 6.2 mi East 13.8 mph - N/A   Partly Cloudy
7:00 PM 84.2 °F 94.1 °F 77.0 °F 79% 29.89 in - North - - N/A   Unknown
8:00 PM 83 °F - 78 °F 80% 29.94 in 22 mi SE 17.3 mph - -   Partly Cloudy
8:00 PM 84.2 °F 94.1 °F 77.0 °F 79% 29.92 in - North - - N/A   Unknown
9:00 PM 82.4 °F 92.4 °F 78.8 °F 89% 29.95 in - North - - N/A   Unknown
10:00 PM 82.4 °F 90.9 °F 77.0 °F 84% 29.95 in - North - - N/A   Unknown
11:00 PM 83 °F - 77 °F 79%  in 6 mi SE 17.3 mph - -   Clear
11:00 PM 82.4 °F 90.9 °F 77.0 °F 84% 29.98 in 6.2 mi SE 17.3 mph - N/A   Scattered Clouds